Location: Newark
(59.4564°N, 26.6917°E)
Time: 06:18:38
(UTC+00:00)

SR - Pass Details

Date: 29 November 2019
Orbit: 573 x 882 km, 66.7° (Epoch: 06 December)

Event Time Altitude Azimuth Distance (km) Brightness Sun altitude
Rises 14:05:52 0° 271° (W) 3,390 ? -5.0°
Reaches altitude 10° 14:08:25 10° 278° (W) 2,489 ? -5.3°
Maximum altitude 14:13:58 44° 350° (N) 1,205 ? -5.8°
Drops below altitude 10° 14:19:39 10° 62° (ENE) 2,552 ? -6.4°
Enters shadow 14:20:15 - 64° (ENE) 2,757 ? -6.5°
Sets 14:22:18 0° 69° (ENE) 3,484 - -6.7°
